Regional Weather Roundup
Issued by NWS

Home | Current Version | Previous Version | Text Only | Print | Product List | Glossary Off
Versions: 1 2 3 4 5 6 7 8 9 10 11 12 13 14 15 16 17 18 19 20 21 22 23 24 25 26 27

000
ASUS45 KPSR 230010
RWRAZ

ARIZONA HOURLY REGIONAL WEATHER ROUNDUP
NATIONAL WEATHER SERVICE PHOENIX AZ
500 PM MST WED NOV 22 2017

NOTE: FAIR INDICATES FEW OR NO CLOUDS BELOW 12,000 FEET WITH NO
SIGNIFICANT WEATHER AND/OR OBSTRUCTIONS TO VISIBILITY.

AZZ001>003-036-230100-
NORTHWEST ARIZONA

CITY           SKY/WX    TMP DP  RH WIND       PRES   REMARKS
BULLHEAD CITY  CLEAR     84  36  17 N20       30.06S
KINGMAN        CLEAR     75  32  20 NE9       30.23S
6HR MIN TEMP:  72; 6HR MAX TEMP:  79;

$$

AZZ004>008-015-016-018-230100-
NORTH CENTRAL ARIZONA

CITY           SKY/WX    TMP DP  RH WIND       PRES   REMARKS
GRAND CANYON   CLEAR     60  29  30 E8        30.43S
6HR MIN TEMP:  60; 6HR MAX TEMP:  68;

WILLIAMS       CLEAR     63  28  27 N8        30.40S
PRESCOTT       CLEAR     72  28  19 N3        30.29F
6HR MIN TEMP:  63; 6HR MAX TEMP:  76;

FLAGSTAFF      CLEAR     58  28  32 E14G20    30.42F
6HR MIN TEMP:  58; 6HR MAX TEMP:  64;

PAYSON         CLEAR     70  25  18 NE7       30.31S HAZE
PAGE           CLEAR     61  28  28 CALM      30.34S
6HR MIN TEMP:  53; 6HR MAX TEMP:  64;

$$

AZZ009>014-017-230100-
NORTHEAST ARIZONA

CITY           SKY/WX    TMP DP  RH WIND       PRES   REMARKS
WINSLOW        CLEAR     64  29  26 NW7       30.34S
6HR MIN TEMP:  53; 6HR MAX TEMP:  68;

SAINT JOHNS    CLEAR     60  21  22 W6        30.34F
6HR MIN TEMP:  53; 6HR MAX TEMP:  66;

WINDOW ROCK    CLEAR     63  27  25 E7        30.38S
6HR MIN TEMP:  57; 6HR MAX TEMP:  72;

SHOW LOW       CLEAR     59  25  27 N8        30.40S
$$

AZZ540-542>544-546-548-230100-
GREATER PHOENIX AREA

CITY           SKY/WX    TMP DP  RH WIND       PRES   REMARKS
PHOENIX        PTCLDY    86  26  11 SW5       30.04F
6HR MIN TEMP:  81; 6HR MAX TEMP:  88;

BUCKEYE        CLEAR     82  68  61 SE3       30.06S
GLENDALE       CLEAR     86  27  11 CALM      30.07F
LUKE AFB       CLEAR     84  29  14 NW3       30.04F
6HR MIN TEMP:  77; 6HR MAX TEMP:  87;

DEER VALLEY    CLEAR     84  24  11 SW7       30.07S
6HR MIN TEMP:  81; 6HR MAX TEMP:  86;

SCOTTSDALE     CLEAR     85  31  14 W3        30.08S
6HR MIN TEMP:  81; 6HR MAX TEMP:  88;

MESA-FALCON    CLEAR     86  28  12 MISG      30.07S
MESA-GATEWAY   CLEAR     82  25  12 S5        30.07F
CHANDLER       CLEAR     86  21   9 CALM      30.06S
$$

AZZ539-553-230100-
SOUTHWEST MARICOPA COUNTY AND PINAL COUNTY

CITY           SKY/WX    TMP DP  RH WIND       PRES   REMARKS
CASA GRANDE    NOT AVBL
$$

AZZ503-504-507>509-230100-
SOUTHEAST ARIZONA

CITY           SKY/WX    TMP DP  RH WIND       PRES   REMARKS
TUCSON         CLEAR     83  17   8 E6        30.12F
6HR MIN TEMP:  77; 6HR MAX TEMP:  86;

DAVIS-MONTHAN  CLEAR     83  15   8 SE8       30.11S
6HR MIN TEMP:  77; 6HR MAX TEMP:  87;

RYAN FIELD     CLEAR     82  19   9 NE7       30.11S
NOGALES        CLEAR     78  17  10 SE7       30.17F
6HR MIN TEMP:  74; 6HR MAX TEMP:  83;

SIERRA VISTA   CLEAR     70  15  12 SE6       30.25F
6HR MIN TEMP:  70; 6HR MAX TEMP:  76;

DOUGLAS        CLEAR     72  16  12 E7        30.22F
6HR MIN TEMP:  69; 6HR MAX TEMP:  77;

SAFFORD        CLEAR     73  20  13 S5        30.19S
6HR MIN TEMP:  67; 6HR MAX TEMP:  75;

$$

AZZ532-230100-
SOUTHWEST ARIZONA

CITY           SKY/WX    TMP DP  RH WIND       PRES   REMARKS
YUMA           CLEAR     87  31  13 N9        30.02S
6HR MIN TEMP:  80; 6HR MAX TEMP:  90;

$$

CAZ041-043-047-048-061-525>527-560>570-230100-
SOUTHERN CALIFORNIA

CITY           SKY/WX    TMP DP  RH WIND       PRES   REMARKS
DOWNTOWN L.A.  CLEAR     86  37  17 CALM      29.98R
6HR MIN TEMP:  84; 6HR MAX TEMP:  93;

L.A. AIRPORT   PTCLDY    78  48  34 W8        29.99R
6HR MIN TEMP:  78; 6HR MAX TEMP:  94;

SAN DIEGO      PTCLDY    84  40  21 NW9       29.96S
6HR MIN TEMP:  79; 6HR MAX TEMP:  92;

BURBANK        CLEAR     91  38  15 S6        30.01R
6HR MIN TEMP:  82; 6HR MAX TEMP:  95;

ONTARIO        PTCLDY    92  33  12 NE10      30.01S
6HR MIN TEMP:  81; 6HR MAX TEMP:  95;

RIVERSIDE      CLEAR     91  37  15 VRB6      30.01S
6HR MIN TEMP:  86; 6HR MAX TEMP:  95;

PALM SPRINGS   CLEAR     89  42  19 SE12      30.05S
6HR MIN TEMP:  89; 6HR MAX TEMP:  96;

EL CENTRO NAS  CLEAR     89  33  13 CALM      30.04S
6HR MIN TEMP:  82; 6HR MAX TEMP:  91;

IMPERIAL       CLEAR     87  39  18 W3        30.01F
6HR MIN TEMP:  81; 6HR MAX TEMP:  90;

BLYTHE         CLEAR     88  30  12 N6        30.05S
6HR MIN TEMP:  75; 6HR MAX TEMP:  89;

NEEDLES        CLEAR     85  37  18 N8        30.09S
6HR MIN TEMP:  78; 6HR MAX TEMP:  89;

$$

NVZ020-UTZ003-230100-
SOUTHERN NEVADA-UTAH

CITY           SKY/WX    TMP DP  RH WIND       PRES   REMARKS
LAS VEGAS      CLEAR     79  38  22 CALM      30.18S
6HR MIN TEMP:  70; 6HR MAX TEMP:  80;

SALT LAKE CITY MOCLDY    58  45  62 W5        30.37S
6HR MIN TEMP:  58; 6HR MAX TEMP:  68;

$$

NMZ009-TXZ055-230100-
NEW MEXICO-WEST TEXAS

CITY           SKY/WX    TMP DP  RH WIND       PRES   REMARKS
ALBUQUERQUE    PTCLDY    60  27  28 S3        30.31S
6HR MIN TEMP:  51; 6HR MAX TEMP:  62;

EL PASO        PTCLDY    65  24  21 W6        30.25F
6HR MIN TEMP:  60; 6HR MAX TEMP:  68;

$$


........................KEY........................
SKY/WX - SKY CONDITION/WEATHER
TMP    - TEMPERATURE IN FAHRENHEIT
DP     - DEW POINT IN FAHRENHEIT
RH     - RELATIVE HUMIDITY IN PERCENT
WIND   - DIRECTION AND SPEED IN MILES PER HOUR (MPH)
VRB    - VARIABLE WIND DIRECTION
PRES   - MEAN SEA LEVEL PRESSURE IN INCHES OF MERCURY
         F - FALLING PRESSURE   R - RISING PRESSURE
         S - STEADY PRESSURE
VSB    - VISIBILITY IN MILES
HX     - HEAT INDEX IN FAHRENHEIT
WCI    - WIND CHILL INDEX IN FAHRENHEIT
TC     - TEMPERATURE IN CELSIUS WHICH IS ALSO KNOWN AS
         TEMPERATURE IN CENTIGRADE
AFB    - AIR FORCE BASE
         LUKE AFB IS LUKE AIR FORCE BASE
         DAVIS-MONTHAN IS DAVIS-MONTHAN AIR FORCE BASE
NAS    - NAVAL AIR STATION
         EL CENTRO NAS IS EL CENTRO NAVAL AIR STATION
N/A    - NOT AVAILABLE





USA.gov is the U.S. government's official web portal to all federal, state and local government web resources and services.